AAL6432 KBFL-KPHX

Flight info

Callsign AAL6432
Flight time N/A
Altitude 33000
Route ARVIN V197 PMD J6 HEC PRFUM WOTRO BRUSR1
Aircraft A20N/M-SDE2E3FGHIRWXY/LB1

Departure

Time 2026-04-25 21:22
Airport Meadows Field (KBFL)

Arrival

Time N/A
Airport Phoenix Sky Harbor International Airport (KPHX)
Time Latitude Longitude Altitude Speed Heading
2026-04-25 20:44 35.43689 -119.05485 489 ft 0 kts 18°
2026-04-25 21:12 35.43688 -119.05485 489 ft 0 kts 18°
2026-04-25 21:13 35.43676 -119.05490 483 ft 2 kts 18°
2026-04-25 21:13 35.43662 -119.05496 487 ft 2 kts 18°
2026-04-25 21:14 35.43649 -119.05504 481 ft 2 kts 54°
2026-04-25 21:14 35.43645 -119.05517 480 ft 0 kts 106°
2026-04-25 21:14 35.43650 -119.05530 482 ft 5 kts 140°
2026-04-25 21:14 35.43664 -119.05539 482 ft 0 kts 166°
2026-04-25 21:17 35.43640 -119.05533 482 ft 9 kts 171°
2026-04-25 21:18 35.43550 -119.05553 486 ft 11 kts 183°
2026-04-25 21:18 35.43462 -119.05485 478 ft 19 kts 133°
2026-04-25 21:18 35.43354 -119.05356 486 ft 24 kts 135°
2026-04-25 21:18 35.43220 -119.05195 488 ft 29 kts 136°
2026-04-25 21:19 35.43067 -119.05011 482 ft 33 kts 135°
2026-04-25 21:19 35.42896 -119.04807 479 ft 36 kts 136°
2026-04-25 21:19 35.42771 -119.04659 484 ft 37 kts 134°
2026-04-25 21:19 35.42713 -119.04584 488 ft 13 kts 135°
2026-04-25 21:20 35.42658 -119.04518 488 ft 20 kts 134°
2026-04-25 21:20 35.42624 -119.04491 483 ft 4 kts 180°
2026-04-25 21:20 35.42598 -119.04497 481 ft 0 kts 200°
2026-04-25 21:21 35.42596 -119.04499 482 ft 2 kts 202°
2026-04-25 21:21 35.42558 -119.04545 480 ft 13 kts 234°
2026-04-25 21:21 35.42585 -119.04650 486 ft 15 kts 310°
2026-04-25 21:21 35.42719 -119.04814 489 ft 64 kts 315°
2026-04-25 21:22 35.43291 -119.05506 483 ft 159 kts 316°
2026-04-25 21:22 35.44271 -119.06537 907 ft 195 kts 323°
2026-04-25 21:22 35.45242 -119.07637 2320 ft 189 kts 313°
2026-04-25 21:22 35.45775 -119.09151 3323 ft 205 kts 278°
2026-04-25 21:23 35.45648 -119.10973 4249 ft 226 kts 262°
2026-04-25 21:23 35.45267 -119.12921 5136 ft 248 kts 251°
2026-04-25 21:23 35.44299 -119.14715 6290 ft 258 kts 225°
2026-04-25 21:23 35.42752 -119.15847 7610 ft 264 kts 201°
2026-04-25 21:24 35.40981 -119.16520 8901 ft 270 kts 201°
2026-04-25 21:24 35.39201 -119.17328 10159 ft 275 kts 205°
2026-04-25 21:24 35.37398 -119.18308 11046 ft 295 kts 208°
2026-04-25 21:24 35.35491 -119.19470 11709 ft 317 kts 210°
2026-04-25 21:25 35.33498 -119.20747 12668 ft 327 kts 210°
2026-04-25 21:25 35.31504 -119.22039 13853 ft 330 kts 210°
2026-04-25 21:25 35.29439 -119.23370 14949 ft 332 kts 208°
2026-04-25 21:25 35.27224 -119.24227 16019 ft 339 kts 192°
2026-04-25 21:26 35.24841 -119.24212 17088 ft 349 kts 175°
2026-04-25 21:26 35.22535 -119.23277 18112 ft 362 kts 158°
2026-04-25 21:26 35.20469 -119.21427 18974 ft 379 kts 141°
2026-04-25 21:26 35.18783 -119.18873 19798 ft 391 kts 133°
2026-04-25 21:27 35.17215 -119.16117 20631 ft 397 kts 131°
2026-04-25 21:27 35.15650 -119.13310 21468 ft 403 kts 131°
2026-04-25 21:27 35.14048 -119.10472 22298 ft 408 kts 132°
2026-04-25 21:27 35.12404 -119.07611 23219 ft 413 kts 133°
2026-04-25 21:28 35.10735 -119.04740 23966 ft 419 kts 133°
2026-04-25 21:28 35.09034 -119.01834 24691 ft 422 kts 134°
2026-04-25 21:28 35.07318 -118.98912 25338 ft 426 kts 134°
2026-04-25 21:28 35.05541 -118.96000 25983 ft 426 kts 137°
2026-04-25 21:29 35.03539 -118.93354 26603 ft 423 kts 144°
2026-04-25 21:29 35.01493 -118.91180 27155 ft 422 kts 149°
2026-04-25 21:29 34.99587 -118.89267 27673 ft 425 kts 148°
2026-04-25 21:29 34.97297 -118.86957 28318 ft 428 kts 148°
2026-04-25 21:30 34.95051 -118.84686 28836 ft 432 kts 148°
2026-04-25 21:30 34.92670 -118.82277 29398 ft 436 kts 148°
2026-04-25 21:30 34.90326 -118.79905 29946 ft 439 kts 148°
2026-04-25 21:30 34.88775 -118.78335 30303 ft 439 kts 148°
2026-04-25 21:31 34.85612 -118.75137 30856 ft 444 kts 149°
2026-04-25 21:31 34.83219 -118.72721 31250 ft 449 kts 149°
2026-04-25 21:31 34.80818 -118.70298 31753 ft 448 kts 149°
2026-04-25 21:31 34.78423 -118.67878 31891 ft 446 kts 149°
2026-04-25 21:32 34.73684 -118.63105 31887 ft 445 kts 149°
2026-04-25 21:32 34.68946 -118.58345 31889 ft 446 kts 149°
2026-04-25 21:33 34.64393 -118.53142 31897 ft 462 kts 135°
2026-04-25 21:33 34.62704 -118.49759 31894 ft 477 kts 123°
2026-04-25 21:33 34.61577 -118.45927 31900 ft 490 kts 111°
2026-04-25 21:34 34.61076 -118.41786 31899 ft 503 kts 99°
2026-04-25 21:34 34.61243 -118.37512 31904 ft 513 kts 86°
2026-04-25 21:34 34.62084 -118.33281 31903 ft 521 kts 75°
2026-04-25 21:34 34.63216 -118.29100 31901 ft 519 kts 78°
2026-04-25 21:35 34.63918 -118.24831 31903 ft 513 kts 89°
2026-04-25 21:35 34.64118 -118.20536 31906 ft 507 kts 96°
2026-04-25 21:35 34.63694 -118.12058 31902 ft 503 kts 101°
2026-04-25 21:36 34.63979 -118.03476 31906 ft 516 kts 85°
2026-04-25 21:36 34.65780 -117.94982 31901 ft 520 kts 78°
2026-04-25 21:37 34.67403 -117.87948 32082 ft 521 kts 78°
2026-04-25 21:37 34.68706 -117.82280 32409 ft 522 kts 78°
2026-04-25 21:37 34.69680 -117.78035 32640 ft 522 kts 78°
2026-04-25 21:38 34.70653 -117.73784 32836 ft 522 kts 78°
2026-04-25 21:38 34.71612 -117.69587 32835 ft 521 kts 78°
2026-04-25 21:38 34.73542 -117.61116 32860 ft 521 kts 78°
2026-04-25 21:39 34.75469 -117.52624 32867 ft 520 kts 78°
2026-04-25 21:39 34.77385 -117.44150 32871 ft 520 kts 78°
2026-04-25 21:40 34.79298 -117.35664 32864 ft 519 kts 78°
2026-04-25 21:40 34.81200 -117.27193 32841 ft 518 kts 78°
2026-04-25 21:41 34.83091 -117.18746 32815 ft 518 kts 78°
2026-04-25 21:41 34.84356 -117.13076 32789 ft 517 kts 78°
2026-04-25 21:42 34.85498 -117.07942 32794 ft 517 kts 78°
2026-04-25 21:43 34.87384 -116.99451 32797 ft 517 kts 78°
2026-04-25 21:43 34.89244 -116.91041 32807 ft 518 kts 78°
2026-04-25 21:44 34.91111 -116.82571 32813 ft 518 kts 78°
2026-04-25 21:45 34.93911 -116.69809 32818 ft 520 kts 78°
2026-04-25 21:45 34.95776 -116.61273 32813 ft 521 kts 78°
2026-04-25 21:46 34.97637 -116.52725 32810 ft 522 kts 78°
2026-04-25 21:46 34.99481 -116.44223 32800 ft 522 kts 78°
2026-04-25 21:47 35.01332 -116.35659 32795 ft 522 kts 78°
2026-04-25 21:47 35.03176 -116.27091 32800 ft 522 kts 78°
2026-04-25 21:48 35.05013 -116.18524 32793 ft 522 kts 78°
2026-04-25 21:48 35.06847 -116.09946 32800 ft 522 kts 78°
2026-04-25 21:49 35.08671 -116.01373 32796 ft 522 kts 78°
2026-04-25 21:49 35.10490 -115.92796 32801 ft 522 kts 78°
2026-04-25 21:50 35.12301 -115.84218 32809 ft 521 kts 78°
2026-04-25 21:50 35.14106 -115.75646 32810 ft 521 kts 78°
2026-04-25 21:51 35.15901 -115.67085 32818 ft 521 kts 78°
2026-04-25 21:51 35.17693 -115.58508 32818 ft 521 kts 78°
2026-04-25 21:52 35.19478 -115.49929 32817 ft 521 kts 78°
2026-04-25 21:52 35.21259 -115.41336 32811 ft 521 kts 78°
2026-04-25 21:53 35.23020 -115.32807 32810 ft 521 kts 78°
2026-04-25 21:53 35.24796 -115.24176 32794 ft 520 kts 78°
2026-04-25 21:54 35.26557 -115.15579 32780 ft 520 kts 78°
2026-04-25 21:54 35.28301 -115.07035 32771 ft 521 kts 78°
2026-04-25 21:55 35.30052 -114.98428 32761 ft 521 kts 78°
2026-04-25 21:55 35.31796 -114.89816 32753 ft 521 kts 78°
2026-04-25 21:56 35.33534 -114.81198 32754 ft 522 kts 78°
2026-04-25 21:56 35.35270 -114.72560 32755 ft 522 kts 78°
2026-04-25 21:57 35.37000 -114.63918 32754 ft 522 kts 78°
2026-04-25 21:57 35.38725 -114.55262 32753 ft 523 kts 78°
2026-04-25 21:58 35.40445 -114.46599 32755 ft 523 kts 78°
2026-04-25 21:58 35.42157 -114.37940 32754 ft 523 kts 78°
2026-04-25 21:59 35.43862 -114.29286 32739 ft 522 kts 78°
2026-04-25 21:59 35.45560 -114.20628 32772 ft 522 kts 78°
2026-04-25 22:00 35.48091 -114.07658 32788 ft 520 kts 78°
2026-04-25 22:00 35.49474 -113.99026 32786 ft 515 kts 90°
2026-04-25 22:01 35.49352 -113.94615 32780 ft 508 kts 102°
2026-04-25 22:01 35.48588 -113.90490 32777 ft 499 kts 115°
2026-04-25 22:01 35.47204 -113.86642 32779 ft 488 kts 127°
2026-04-25 22:01 35.45970 -113.84280 32786 ft 482 kts 133°
2026-04-25 22:02 35.41333 -113.76639 32791 ft 482 kts 133°
2026-04-25 22:02 35.37495 -113.69875 32789 ft 485 kts 131°
2026-04-25 22:03 35.33740 -113.62984 32783 ft 487 kts 131°
2026-04-25 22:03 35.29985 -113.56058 32779 ft 489 kts 131°
2026-04-25 22:04 35.26208 -113.49112 32764 ft 490 kts 131°
2026-04-25 22:04 35.22428 -113.42177 32525 ft 490 kts 131°
2026-04-25 22:05 35.20536 -113.38713 32282 ft 489 kts 131°
2026-04-25 22:05 35.18639 -113.35243 32015 ft 491 kts 130°
2026-04-25 22:05 35.16737 -113.31770 31750 ft 492 kts 130°
2026-04-25 22:05 35.14911 -113.28437 31518 ft 492 kts 130°
2026-04-25 22:06 35.13006 -113.24961 31066 ft 493 kts 130°
2026-04-25 22:06 35.11092 -113.21477 30228 ft 495 kts 129°
2026-04-25 22:06 35.09815 -113.19158 29517 ft 497 kts 129°
2026-04-25 22:06 35.07903 -113.15676 28933 ft 487 kts 129°
2026-04-25 22:07 35.06054 -113.12303 28529 ft 474 kts 129°
2026-04-25 22:07 35.04841 -113.10101 28188 ft 470 kts 129°
2026-04-25 22:07 35.02386 -113.05667 27957 ft 474 kts 129°
2026-04-25 22:07 35.00541 -113.02343 27810 ft 474 kts 129°
2026-04-25 22:08 34.98789 -112.99182 27594 ft 472 kts 129°
2026-04-25 22:08 34.96951 -112.95864 27345 ft 470 kts 129°
2026-04-25 22:08 34.95129 -112.92581 27100 ft 469 kts 129°
2026-04-25 22:08 34.93303 -112.89291 26873 ft 467 kts 129°
2026-04-25 22:09 34.91485 -112.86021 26625 ft 465 kts 130°
2026-04-25 22:09 34.89670 -112.82759 26382 ft 464 kts 130°
2026-04-25 22:09 34.87858 -112.79505 26147 ft 462 kts 130°
2026-04-25 22:09 34.86056 -112.76271 25914 ft 461 kts 130°
2026-04-25 22:10 34.84260 -112.73052 25691 ft 459 kts 130°
2026-04-25 22:10 34.82473 -112.69851 25474 ft 458 kts 130°
2026-04-25 22:10 34.80683 -112.66648 25265 ft 457 kts 130°
2026-04-25 22:10 34.78902 -112.63464 25041 ft 455 kts 130°
2026-04-25 22:11 34.77119 -112.60279 24826 ft 454 kts 130°
2026-04-25 22:11 34.75346 -112.57115 24614 ft 453 kts 130°
2026-04-25 22:11 34.73571 -112.53952 24399 ft 452 kts 130°
2026-04-25 22:11 34.71798 -112.50814 24183 ft 449 kts 132°
2026-04-25 22:12 34.69814 -112.47905 23956 ft 442 kts 140°
2026-04-25 22:12 34.67590 -112.45378 23487 ft 437 kts 148°
2026-04-25 22:12 34.65230 -112.43088 22958 ft 430 kts 148°
2026-04-25 22:12 34.63804 -112.41702 22789 ft 424 kts 148°
2026-04-25 22:13 34.60753 -112.38733 22364 ft 426 kts 148°
2026-04-25 22:13 34.58452 -112.36492 21984 ft 424 kts 148°
2026-04-25 22:13 34.56168 -112.34262 21592 ft 419 kts 148°
2026-04-25 22:13 34.53897 -112.32045 21196 ft 417 kts 148°
2026-04-25 22:14 34.51653 -112.29857 20806 ft 414 kts 148°
2026-04-25 22:14 34.49405 -112.27666 20418 ft 411 kts 148°
2026-04-25 22:14 34.47201 -112.25517 20232 ft 400 kts 148°
2026-04-25 22:14 34.44963 -112.23707 20044 ft 376 kts 159°
2026-04-25 22:15 34.42601 -112.22499 19404 ft 364 kts 171°
2026-04-25 22:15 34.40152 -112.21828 18886 ft 356 kts 176°
2026-04-25 22:15 34.37763 -112.21237 18635 ft 351 kts 175°
2026-04-25 22:16 34.32951 -112.20010 17991 ft 352 kts 175°
2026-04-25 22:16 34.30568 -112.19391 17670 ft 348 kts 174°
2026-04-25 22:16 34.28205 -112.18777 17462 ft 347 kts 174°
2026-04-25 22:16 34.25839 -112.18165 17205 ft 348 kts 174°
2026-04-25 22:17 34.23487 -112.17557 16889 ft 345 kts 174°
2026-04-25 22:17 34.21146 -112.16950 16577 ft 342 kts 174°
2026-04-25 22:17 34.18828 -112.16350 16269 ft 340 kts 174°
2026-04-25 22:17 34.16512 -112.15753 15960 ft 338 kts 174°
2026-04-25 22:18 34.14227 -112.15163 15724 ft 332 kts 174°
2026-04-25 22:18 34.12011 -112.14585 15609 ft 319 kts 175°
2026-04-25 22:18 34.09877 -112.14031 15273 ft 312 kts 175°
2026-04-25 22:18 34.07761 -112.13380 14789 ft 315 kts 169°
2026-04-25 22:19 34.05692 -112.12529 14431 ft 310 kts 168°
2026-04-25 22:19 34.03699 -112.11708 14212 ft 305 kts 168°
2026-04-25 22:19 34.01688 -112.10887 13939 ft 304 kts 168°
2026-04-25 22:19 33.99696 -112.10076 13660 ft 301 kts 168°
2026-04-25 22:20 33.97715 -112.09273 13384 ft 299 kts 168°
2026-04-25 22:20 33.95741 -112.08472 13114 ft 299 kts 168°
2026-04-25 22:20 33.93771 -112.07673 12854 ft 298 kts 168°
2026-04-25 22:20 33.91812 -112.06878 12587 ft 296 kts 168°
2026-04-25 22:21 33.89864 -112.06088 12326 ft 296 kts 168°
2026-04-25 22:21 33.87910 -112.05296 12063 ft 295 kts 167°
2026-04-25 22:21 33.85967 -112.04509 11693 ft 296 kts 167°
2026-04-25 22:21 33.84000 -112.03714 11196 ft 298 kts 167°
2026-04-25 22:22 33.82042 -112.02920 10775 ft 295 kts 166°
2026-04-25 22:22 33.80109 -112.02136 10347 ft 292 kts 166°
2026-04-25 22:22 33.78185 -112.01357 9924 ft 290 kts 166°
2026-04-25 22:22 33.76274 -112.00584 9466 ft 288 kts 166°
2026-04-25 22:23 33.74401 -111.99825 9126 ft 282 kts 165°
2026-04-25 22:23 33.72523 -111.99069 8790 ft 283 kts 165°
2026-04-25 22:23 33.70663 -111.98318 8677 ft 284 kts 165°
2026-04-25 22:23 33.68793 -111.97564 8563 ft 283 kts 165°
2026-04-25 22:24 33.66952 -111.96818 8489 ft 274 kts 165°
2026-04-25 22:24 33.65184 -111.96100 8386 ft 262 kts 165°
2026-04-25 22:24 33.63498 -111.95417 8076 ft 258 kts 165°
2026-04-25 22:24 33.61774 -111.94722 7684 ft 257 kts 165°
2026-04-25 22:25 33.60104 -111.94049 7323 ft 256 kts 165°
2026-04-25 22:25 33.58400 -111.93359 6984 ft 255 kts 165°
2026-04-25 22:25 33.56738 -111.92687 6696 ft 252 kts 165°
2026-04-25 22:25 33.55121 -111.92030 6605 ft 241 kts 164°
2026-04-25 22:26 33.53661 -111.91121 6473 ft 237 kts 141°
2026-04-25 22:26 33.52755 -111.89473 6200 ft 242 kts 109°
2026-04-25 22:26 33.52549 -111.87462 5878 ft 246 kts 92°
2026-04-25 22:26 33.52576 -111.85412 5589 ft 245 kts 89°
2026-04-25 22:27 33.52654 -111.83378 5344 ft 244 kts 88°
2026-04-25 22:27 33.52740 -111.81353 5091 ft 243 kts 88°
2026-04-25 22:27 33.52818 -111.79333 4842 ft 242 kts 89°
2026-04-25 22:27 33.52564 -111.77362 4494 ft 240 kts 117°
2026-04-25 22:28 33.51570 -111.75892 4239 ft 232 kts 148°
2026-04-25 22:28 33.50082 -111.75257 4054 ft 220 kts 178°
2026-04-25 22:28 33.48528 -111.75127 4041 ft 228 kts 179°
2026-04-25 22:28 33.46956 -111.75203 4023 ft 222 kts 200°
2026-04-25 22:29 33.45843 -111.75990 4028 ft 216 kts 228°
2026-04-25 22:29 33.44993 -111.77463 4022 ft 217 kts 240°
2026-04-25 22:29 33.44394 -111.79079 4026 ft 203 kts 255°
2026-04-25 22:30 33.44089 -111.82030 3945 ft 162 kts 267°
2026-04-25 22:30 33.44071 -111.83302 3729 ft 145 kts 269°
2026-04-25 22:30 33.44066 -111.84480 3542 ft 136 kts 268°
2026-04-25 22:30 33.44064 -111.85225 3426 ft 130 kts 267°
2026-04-25 22:31 33.44068 -111.86604 3217 ft 127 kts 269°
2026-04-25 22:31 33.44065 -111.87679 3039 ft 131 kts 267°
2026-04-25 22:31 33.44070 -111.88755 2864 ft 125 kts 268°
2026-04-25 22:31 33.44071 -111.89795 2716 ft 127 kts 268°
2026-04-25 22:32 33.44071 -111.90879 2542 ft 131 kts 269°
2026-04-25 22:32 33.44072 -111.91931 2382 ft 125 kts 269°
2026-04-25 22:32 33.44075 -111.92999 2227 ft 131 kts 271°
2026-04-25 22:32 33.44076 -111.94056 2049 ft 124 kts 269°
2026-04-25 22:33 33.44075 -111.95105 1877 ft 130 kts 271°
2026-04-25 22:33 33.44080 -111.96193 1707 ft 132 kts 271°
2026-04-25 22:33 33.44076 -111.97222 1495 ft 115 kts 275°
2026-04-25 22:33 33.44084 -111.98269 1346 ft 136 kts 274°
2026-04-25 22:34 33.44084 -111.98632 1297 ft 131 kts 272°